GFSGL_850_temp_021.txt.gz
Temp
16 16 16 15 15 15 15 15 14 14 13 13 13 13 13 13 13 12 12 12 13 13 13 12 13 13 13 13 13 13 13 12 13 11 12 12 11 12 11 12 11 11 12
15 15 15 15 14 14 14 14 13 13 13 13 13 13 13 13 13 13 12 12 13 13 13 13 13 13 13 13 13 13 13 13 13 11 12 11 11 12 12 11 11 12 10
15 15 15 14 14 14 13 13 13 13 13 13 13 13 13 13 13 13 12 13 13 13 13 13 13 13 13 13 13 13 13 13 13 13 11 10 11 11 11 10 11 12 10
15 15 15 15 14 14 13 13 12 13 13 13 13 13 13 13 13 13 13 12 13 13 13 13 13 13 13 13 13 13 13 12 12 11 10 10 10 10 10 10 8 8 8
15 15 15 15 14 14 13 12 12 13 13 13 13 13 13 13 13 13 12 13 13 13 13 13 13 13 13 13 13 13 13 11 10 10 10 9 8 8 9 9 10 8 7
15 15 15 14 14 13 13 12 13 13 13 13 13 13 13 13 13 12 13 13 13 12 13 13 13 12 13 13 13 12 11 10 10 10 9 8 8 8 9 9 8 8 8
15 15 15 14 13 13 13 13 13 13 13 13 13 13 13 13 13 13 13 13 13 12 12 12 12 12 11 11 11 9 9 9 9 10 9 9 9 10 10 9 8 9 9
15 15 15 14 14 13 13 13 13 13 13 13 13 13 13 13 13 13 13 12 13 12 12 12 11 11 10 10 9 9 9 9 9 9 9 9 10 10 10 11 9 10 8
16 15 14 14 14 13 13 14 13 13 13 13 13 13 13 13 13 13 13 12 12 12 11 11 11 10 10 9 9 9 9 9 9 10 11 11 11 10 10 9 9 9 8
16 16 15 14 14 14 14 13 13 13 13 13 13 13 13 13 13 12 12 12 12 12 11 11 10 10 10 10 10 10 9 10 10 9 9 9 10 10 10 11 11 11 11
16 16 15 15 14 14 14 14 13 13 13 13 13 13 12 13 12 12 12 12 12 11 11 11 10 11 11 11 12 12 11 10 10 10 10 9 9 10 10 10 11 12 12
16 16 16 15 15 14 14 14 13 13 13 12 12 12 12 13 12 12 12 11 11 11 11 11 11 10 10 11 11 11 11 11 10 10 10 10 10 10 10 10 10 11 11
16 16 16 16 15 14 14 14 13 13 13 12 12 12 12 12 12 11 11 11 11 11 11 11 10 10 11 11 11 11 11 11 11 11 11 11 11 11 10 10 10 10 11
17 17 16 16 15 15 14 14 14 14 13 13 12 12 12 12 12 12 12 11 11 11 10 10 10 10 10 10 10 11 11 12 12 12 12 12 11 10 10 10 11 11 11
17 17 17 16 15 15 15 14 14 14 14 14 13 13 13 13 12 12 12 12 11 11 10 10 10 10 10 10 10 11 11 11 12 12 12 12 11 11 11 11 11 11 11
17 17 17 16 16 15 15 15 14 14 14 13 13 13 13 12 12 12 11 11 11 11 11 11 10 10 10 11 11 11 11 11 11 11 12 12 12 12 11 11 11 11 11
18 17 17 16 16 15 15 15 15 15 14 14 13 13 12 13 12 12 12 12 12 12 12 11 11 11 11 11 11 11 11 11 11 11 11 12 11 11 11 11 11 12 12
18 18 17 17 16 16 16 15 15 15 15 15 14 13 13 13 13 12 12 12 12 12 12 12 12 12 12 12 12 12 12 12 12 12 11 11 11 12 12 12 12 12 13
18 18 18 17 17 17 16 16 15 15 15 15 15 14 13 13 12 12 12 13 13 13 13 13 13 13 13 13 13 13 13 13 13 12 12 12 12 12 12 12 13 13 13
18 18 18 18 17 17 16 16 16 15 15 15 16 16 15 14 13 13 13 13 13 13 13 13 13 13 13 13 14 14 13 13 13 13 13 13 13 13 13 13 13 13 14
18 18 18 18 18 17 17 17 16 16 16 16 16 16 16 16 16 15 15 15 14 14 14 14 14 13 13 14 13 13 13 14 14 13 13 13 13 13 14 14 14 14 14
18 18 18 18 18 18 18 17 17 17 16 16 16 16 16 15 15 16 16 16 16 16 15 15 15 14 14 14 14 14 14 14 13 13 13 13 14 14 14 14 14 14 14
16 17 18 17 17 18 18 18 18 17 17 17 17 17 16 16 16 16 16 16 16 16 16 16 15 15 15 15 14 14 14 14 14 14 14 14 14 14 14 14 14 14 14
13 14 15 16 16 16 16 17 17 17 17 17 17 17 17 17 17 17 17 17 17 17 17 16 16 16 16 16 15 15 14 14 14 14 14 14 14 14 14 14 14 14 15
13 13 14 14 14 15 16 16 16 17 17 17 18 18 18 18 18 18 18 18 18 18 18 18 17 17 16 16 16 16 16 15 15 14 14 14 14 14 14 15 15 15 15
12 12 13 14 13 14 14 14 15 16 16 16 16 17 17 18 18 19 19 19 18 19 19 19 18 18 18 18 18 17 17 17 17 16 16 15 15 14 14 14 15 15 15

GFSGL_850_temp_024.txt.gz
Temp
16 16 16 16 16 15 15 15 14 14 13 13 13 13 13 13 13 13 12 12 12 12 12 12 12 13 13 13 12 12 12 12 12 10 10 11 11 12 13 13 13 12 12
16 16 15 15 15 15 14 14 14 14 13 13 13 13 13 13 13 13 12 12 12 12 12 13 13 13 13 13 13 13 13 12 12 11 11 11 11 11 11 11 11 11 11
15 15 15 15 14 14 14 13 13 13 13 13 13 13 13 13 13 13 12 12 12 12 12 13 13 13 13 13 13 13 13 12 11 11 11 11 11 11 11 11 11 10 10
15 15 15 14 14 14 13 13 12 12 13 13 13 13 13 13 13 13 12 12 12 12 13 13 13 13 13 13 13 13 13 13 12 11 10 10 10 10 11 10 9 9 8
15 15 15 14 14 13 13 12 12 12 13 13 13 13 13 13 13 12 12 12 12 12 13 13 13 13 13 13 13 13 13 12 12 10 10 10 10 9 10 9 10 9 8
15 15 14 14 14 13 12 12 12 13 13 14 13 13 13 13 12 13 12 12 12 13 13 13 13 13 13 12 12 11 11 12 11 10 10 10 9 10 9 9 9 9 7
15 14 15 13 13 13 12 12 13 13 14 14 13 13 13 13 13 12 12 12 13 13 12 12 12 12 12 12 10 9 10 10 11 11 10 9 9 9 9 10 10 8 8
15 15 15 14 13 13 13 13 13 13 13 13 13 13 13 13 13 13 12 12 12 12 12 12 12 12 11 11 9 9 9 9 9 9 9 9 9 9 10 10 10 9 8
15 15 14 14 13 13 13 13 13 13 13 13 13 13 13 13 12 13 12 12 12 12 11 11 11 10 10 9 9 9 9 9 9 9 9 9 9 10 11 11 9 10 8
16 15 14 14 13 13 13 13 13 13 13 13 13 13 13 12 12 12 12 12 12 12 11 10 9 10 9 9 9 9 9 9 9 8 8 9 9 10 10 10 11 11 10
16 16 15 14 14 13 13 13 13 13 13 13 13 13 12 12 12 12 11 11 12 12 11 10 9 9 9 9 9 10 11 10 9 9 9 9 9 9 9 9 11 12 12
16 16 15 14 14 14 13 13 13 13 13 13 13 12 12 12 12 11 11 11 11 12 11 10 10 9 9 9 10 10 11 10 10 10 10 9 9 9 9 10 10 11 11
16 16 15 16 14 14 13 13 13 13 13 12 12 12 12 12 12 11 11 11 10 11 12 10 10 10 9 9 10 11 11 11 11 10 10 10 10 10 10 10 10 10 10
16 16 16 16 15 14 13 13 13 13 12 12 12 12 12 12 11 11 11 11 10 10 11 11 9 9 10 10 10 11 11 11 11 11 11 11 10 10 10 10 10 10 11
16 16 16 16 15 14 14 13 13 13 13 12 12 12 12 12 12 11 12 11 11 10 11 11 10 10 10 10 10 10 11 11 11 11 11 11 11 11 10 10 10 11 11
17 16 16 16 15 15 15 14 14 14 13 12 12 12 12 11 11 11 11 11 10 10 10 10 10 10 10 11 11 11 11 11 11 11 12 12 12 11 11 11 11 11 11
17 17 16 16 15 15 15 15 14 14 14 13 12 12 12 12 11 11 11 11 11 10 10 10 10 10 10 11 11 11 12 11 11 11 12 12 12 11 11 12 12 12 12
18 18 17 17 16 15 15 15 14 15 15 14 13 12 12 12 11 11 11 11 11 11 10 10 10 10 10 12 12 12 12 11 11 11 11 12 12 12 12 12 12 12 12
18 18 17 17 17 16 15 15 15 15 15 15 14 14 13 12 12 12 11 12 12 12 12 12 12 12 12 12 12 12 12 12 12 12 12 12 12 12 12 12 12 12 12
17 18 18 18 17 16 16 15 15 15 15 15 15 14 14 14 14 13 13 13 13 13 13 13 12 12 12 12 12 12 12 12 12 12 12 12 12 12 12 12 12 12 13
17 17 17 17 17 17 17 16 16 15 15 15 15 15 15 15 15 15 15 15 14 14 14 14 14 13 13 13 12 12 12 12 12 13 12 12 12 12 12 12 13 13 13
17 17 17 17 17 17 17 17 16 16 16 16 16 15 15 15 15 15 15 15 15 15 15 14 14 14 14 14 14 14 14 14 13 13 13 13 13 13 13 13 13 13 13
16 17 17 17 17 16 16 16 16 16 16 16 16 16 16 16 16 16 16 16 15 15 15 15 15 15 14 14 14 14 14 15 15 14 14 14 14 13 13 13 13 13 14
14 15 15 15 16 16 16 16 16 16 16 16 16 17 17 17 17 17 17 17 17 17 16 16 16 16 16 15 15 15 15 15 14 14 14 14 14 14 13 13 13 13 14
13 13 13 13 13 14 14 14 14 15 15 15 16 16 16 16 17 17 17 17 17 17 17 17 17 17 16 16 16 16 16 15 15 15 15 14 14 14 14 14 14 14 14
12 12 12 12 12 12 12 12 12 13 13 14 14 15 15 15 15 16 16 16 17 17 17 17 18 18 18 18 17 17 17 16 16 16 15 15 15 15 14 14 14 14 14

GFSGL_850_temp_030.txt.gz
Temp
16 16 15 15 15 15 15 14 14 15 14 13 13 13 13 12 12 12 12 12 12 12 12 12 12 11 12 12 12 12 12 12 12 11 12 12 12 12 13 13 13 13 13
16 15 15 15 15 14 14 14 14 13 13 13 13 13 13 13 12 12 12 12 12 13 12 12 12 12 12 12 12 12 12 12 12 11 11 12 12 12 13 13 13 13 13
16 15 15 14 14 14 14 14 13 13 13 13 13 14 14 13 13 13 13 13 13 12 12 12 12 12 12 12 12 12 12 12 12 11 11 11 11 11 13 13 13 12 11
16 15 15 14 14 13 13 13 13 13 13 13 13 14 13 13 13 12 13 12 12 12 12 12 12 12 12 12 12 12 12 12 11 11 11 11 11 11 12 12 11 11 11
16 15 14 14 13 13 13 13 13 13 13 14 14 13 13 12 12 12 12 12 13 12 12 12 12 12 13 13 12 12 12 12 11 11 11 11 11 11 11 12 11 11 10
15 15 14 14 14 13 13 13 13 13 13 14 13 13 13 12 13 13 12 12 12 12 11 12 13 13 13 13 13 13 12 11 11 11 11 11 11 11 11 11 11 10 8
15 15 14 14 14 13 13 13 13 13 13 13 13 13 12 13 13 13 12 12 12 13 13 13 13 13 13 13 13 12 11 11 11 12 11 11 10 11 11 10 10 10 9
16 15 15 14 14 13 13 13 13 13 12 13 12 12 12 13 13 12 12 13 12 12 12 12 12 13 13 13 12 11 11 11 11 11 11 10 10 10 10 10 9 10 8
16 15 15 15 14 14 14 13 13 13 13 12 12 12 12 13 12 12 12 12 12 12 11 12 12 12 13 12 10 10 11 10 10 11 10 10 10 10 10 10 9 9 8
16 15 15 15 14 14 14 13 13 13 13 13 12 13 13 12 12 12 11 11 11 11 10 10 11 11 12 11 11 11 10 10 10 10 10 10 9 9 9 9 10 10 8
16 16 15 15 14 14 13 13 12 13 13 12 12 12 13 12 12 12 11 11 11 11 10 10 10 10 10 10 10 10 10 9 10 10 9 9 8 8 9 9 9 9 8
16 16 15 14 15 13 12 12 12 13 12 12 12 11 12 12 12 11 10 11 10 10 10 9 9 9 9 9 9 9 9 9 9 9 9 8 8 8 8 9 9 9 10
16 16 15 14 14 13 13 12 12 12 12 12 13 12 12 11 11 11 10 10 10 10 9 9 9 9 9 9 9 9 9 9 9 9 8 8 8 8 8 9 9 9 10
16 15 15 15 14 13 13 13 13 12 12 13 13 12 11 11 11 11 10 10 10 9 9 9 9 9 9 9 8 9 9 9 9 9 9 9 9 9 9 9 9 9 11
16 15 15 14 15 13 13 13 12 12 12 13 13 14 11 11 11 10 10 10 10 10 10 9 9 9 9 9 9 10 10 10 10 10 10 9 9 10 10 11 11 11 12
16 16 16 16 15 15 14 13 13 13 13 12 12 13 12 12 12 11 10 10 11 11 9 10 10 9 9 10 10 10 10 10 11 11 11 11 12 12 12 11 12 12 12
17 17 16 16 16 16 15 14 13 13 13 13 13 12 12 12 12 11 10 10 10 11 10 10 10 10 10 11 11 11 11 11 11 12 12 12 13 13 12 12 12 12 13
17 17 17 17 17 16 16 15 15 14 13 12 12 12 12 12 12 11 10 10 10 10 10 10 10 11 12 12 12 13 13 12 12 13 13 13 12 13 12 13 13 13 13
17 17 18 18 17 17 16 16 16 15 14 13 12 12 12 11 11 11 11 10 10 10 10 10 11 12 12 12 12 13 13 13 13 13 13 13 12 13 13 13 13 13 13
17 17 17 17 17 17 17 17 16 16 15 15 14 12 13 12 12 12 11 10 10 11 11 11 11 11 12 12 13 13 13 13 12 13 13 13 13 13 13 13 14 14 13
18 17 17 17 17 17 17 17 17 17 16 16 16 14 14 12 12 12 11 12 13 13 13 13 13 13 13 12 13 13 12 13 13 13 13 13 13 13 13 13 14 14 14
17 17 17 18 18 17 17 17 17 17 17 17 16 15 14 14 15 13 13 13 14 14 14 13 14 14 14 13 13 13 13 12 12 13 13 13 13 13 13 13 14 14 14
15 17 17 17 17 17 16 17 17 17 17 17 17 15 15 14 15 16 15 14 14 14 14 14 14 14 14 14 14 13 13 13 13 13 13 13 14 14 14 14 14 14 14
13 14 15 16 17 17 17 16 16 16 16 17 17 16 15 15 15 15 15 15 15 15 14 14 14 14 14 14 14 14 14 14 14 14 14 14 14 14 14 14 14 14 14
12 13 13 12 12 13 13 14 14 14 14 14 15 15 15 15 15 14 14 14 14 14 14 14 14 14 13 13 14 14 14 13 13 13 14 14 14 14 14 14 14 14 14
10 11 10 10 10 11 10 10 10 10 11 11 11 11 11 11 12 12 11 11 11 12 13 13 13 13 12 12 12 12 12 12 12 12 11 12 12 14 14 14 14 14 15

GFSGL_850_temp_033.txt.gz
Temp
17 17 17 17 17 16 16 16 15 15 15 15 15 14 14 14 13 14 14 14 13 13 13 12 12 13 13 14 13 13 12 12 12 12 12 13 13 13 13 13 13 13 13
17 16 16 16 16 16 16 15 15 15 15 15 15 14 14 14 14 14 13 14 13 13 13 13 13 12 13 13 13 13 13 13 13 12 12 12 13 12 13 13 13 13 13
17 16 16 16 16 16 15 15 15 15 15 15 15 15 15 15 14 14 13 13 13 13 13 13 13 13 13 13 13 13 13 13 13 12 12 12 12 12 13 13 13 13 13
18 17 16 16 15 15 15 15 15 15 15 15 15 16 16 15 14 13 13 13 13 13 13 13 14 13 13 12 13 13 13 13 12 12 12 11 12 12 13 13 12 11 11
18 17 16 16 16 15 15 15 15 15 15 15 15 15 14 14 14 13 13 13 13 13 13 12 13 13 13 12 13 13 13 12 11 12 11 11 11 11 11 11 11 11 11
17 17 16 16 15 15 15 15 15 15 15 15 15 14 13 14 14 14 13 13 12 13 13 12 13 14 13 13 14 14 13 12 12 11 11 11 11 11 11 11 11 11 9
17 17 16 16 15 14 14 14 15 15 14 14 14 14 13 14 14 13 13 13 12 12 12 13 12 13 13 13 13 13 12 11 11 11 12 11 11 11 11 11 11 10 10
18 17 16 15 14 14 14 15 15 14 13 13 13 13 13 14 13 13 13 12 12 12 12 12 12 13 12 14 13 13 11 11 11 11 12 12 11 11 11 11 10 11 9
17 16 16 14 14 14 15 14 14 13 12 13 13 13 12 13 13 13 12 12 12 12 12 12 12 11 12 11 11 11 11 11 10 11 12 11 11 10 11 10 10 10 9
16 17 17 17 15 15 15 14 14 13 13 13 13 13 13 13 13 13 12 12 12 12 12 11 11 11 11 11 11 11 11 10 10 11 10 10 10 10 10 10 10 11 10
17 17 16 16 16 15 15 14 13 14 14 13 12 12 12 12 12 12 12 12 11 11 11 11 11 11 10 10 10 10 11 10 10 10 10 10 10 10 9 9 10 10 10
18 16 15 15 15 14 14 14 14 13 13 13 12 12 11 12 11 11 11 11 11 10 10 10 10 10 10 10 10 10 10 10 9 10 10 9 9 9 9 9 10 9 9
17 16 15 15 15 14 13 13 14 14 15 14 13 13 12 12 11 11 11 10 10 10 10 10 9 9 9 9 10 9 10 10 10 9 9 9 9 9 9 9 9 10 10
17 16 16 15 15 15 14 14 13 13 13 13 13 13 12 11 11 11 10 10 9 10 10 9 9 9 9 9 9 9 9 9 9 9 9 9 9 9 9 10 10 10 10
17 16 16 16 15 14 14 14 13 14 13 13 13 13 11 11 11 11 10 10 9 10 9 9 9 9 9 9 9 9 9 9 9 9 9 9 9 10 9 10 10 11 12
17 17 17 17 16 15 14 14 13 13 13 13 13 13 13 12 12 10 10 10 10 10 9 10 9 9 9 9 10 10 10 10 10 10 10 10 10 11 11 11 12 12 12
18 18 18 18 16 16 16 15 13 13 13 13 13 13 13 13 12 10 11 11 10 10 10 11 10 11 11 11 11 11 10 11 11 11 11 12 12 13 13 13 13 13 13
18 18 18 18 18 16 16 15 15 13 13 13 12 12 12 12 11 10 11 10 10 10 11 11 11 12 12 12 12 12 12 12 12 12 13 13 14 14 14 14 14 14 14
18 19 19 19 18 18 16 15 15 15 15 12 12 12 11 11 11 10 11 10 10 11 11 12 12 12 12 13 13 13 13 13 13 13 14 14 15 15 14 14 14 14 14
18 19 19 19 18 19 18 16 16 16 15 14 13 12 12 12 11 10 10 11 11 11 12 12 12 12 13 13 13 14 14 14 14 14 15 14 14 14 14 15 15 15 14
19 18 18 19 19 19 19 19 18 18 17 16 15 14 13 11 10 10 11 11 12 12 12 13 13 13 14 14 14 14 14 13 14 14 15 15 14 14 14 15 15 15 15
19 18 18 20 20 20 19 19 19 19 19 18 16 15 14 15 15 14 13 13 14 15 15 15 14 14 14 14 15 15 15 15 15 15 15 15 15 15 15 15 15 15 15
19 19 19 20 19 19 19 19 19 19 19 19 16 16 15 15 15 16 16 16 16 16 15 15 16 16 16 16 15 15 15 15 15 14 14 15 15 15 15 15 15 15 15
17 17 18 18 18 18 19 19 18 18 17 18 17 16 16 16 17 17 16 17 17 17 16 16 16 16 16 16 16 15 15 15 15 15 15 15 15 15 15 15 16 16 16
15 17 17 17 17 16 16 17 17 17 16 16 15 15 15 15 15 16 16 15 14 15 15 15 15 15 15 15 15 15 15 15 15 14 14 14 15 15 15 15 16 16 16
12 12 13 14 15 15 15 15 15 14 15 14 14 14 14 14 14 15 15 15 15 14 13 14 14 14 14 14 14 14 14 14 14 13 13 13 13 13 14 14 15 15 15